Weather History for Gainesville, GA

Change the Weather History Date:

Sunday, October 7, 2012

  Actual Average Record
Temperature  
Mean Temperature 60 °F 64 °F  
Max Temperature 68 °F 74 °F 90 °F (1939)
Min Temperature 54 °F 55 °F 28 °F (1935)
Degree Days  
Heating Degree Days 4 3  
Month to date heating degree days 16  
Since 1 July heating degree days 29  
Cooling Degree Days 0 2  
Month to date cooling degree days 17  
Year to date cooling degree days 1558  
Growing Degree Days 10 (Base 50)    
Moisture  
Dew Point 52 °F    
Average Humidity 79    
Maximum Humidity 94    
Minimum Humidity 60    
Precipitation  
Precipitation 0.00 in 0.15 in 2.36 in (1959)
Month to date precipitation 1.19  
Snow  
Snow 0.00 in - - ()
Month to date snowfall  
Since 1 July snowfall  
Since 1 September snowfall  
Snow Depth -    
Sea Level Pressure  
Sea Level Pressure 30.02 in    
Wind  
Wind Speed 6 mph (WNW)    
Max Wind Speed 15 mph    
Max Gust Speed 23 mph    
Visibility 10 miles    
Events      
T = Trace of Precipitation, MM = Missing Value Source: NWS Daily Summary

Daily Weather History Graph

Daily Weather History Graph

Search for Another Location

Airport:

Trip Planner

Search our weather history database for the weather conditions in past years. The results will help you decide how hot, cold, wet, or windy it might be!

Date:

Astronomy

Oct. 07, 2012 Rise Set
Actual Time 7:34 AM EDT 7:10 PM EDT
Civil Twilight 7:09 AM EDT 7:35 PM EDT
Nautical Twilight 6:40 AM EDT 8:04 PM EDT
Astronomical Twilight 6:11 AM EDT 8:33 PM EDT
Moon No Moon Rise 2:00 PM EDT (10/7)
Length of Visible Light 12h 26m
Length of Day
11h 35m
Waning Gibbous, 56% of the Moon is Illuminated
Oct 7
Waning Gibbous
Oct 8
Last Quarter
Oct 15
New
Oct 21
First Quarter
Oct 29
Full

Hourly Weather History & Observations

Time (EDT) Temp. Dew Point Humidity Pressure Visibility Wind Dir Wind Speed Gust Speed Precip Events Conditions
12:53 AM 60.1 °F 57.0 °F 90% 29.97 in 10.0 mi WNW 5.8 mph - N/A   Partly Cloudy
1:53 AM 59.0 °F 55.9 °F 90% 29.97 in 10.0 mi WNW 5.8 mph - N/A   Clear
2:44 AM 57.2 °F 55.4 °F 94% 30.01 in 10.0 mi West 4.6 mph - N/A   Partly Cloudy
2:53 AM 57.9 °F 55.0 °F 90% 29.97 in 10.0 mi West 5.8 mph - N/A   Mostly Cloudy
3:53 AM 55.9 °F 54.0 °F 93% 29.97 in 10.0 mi West 5.8 mph - N/A   Overcast
4:53 AM 55.9 °F 53.1 °F 90% 29.98 in 10.0 mi West 8.1 mph - N/A   Mostly Cloudy
5:53 AM 55.9 °F 52.0 °F 87% 29.97 in 10.0 mi NW 8.1 mph - N/A   Clear
6:53 AM 55.9 °F 53.1 °F 90% 29.98 in 10.0 mi West 4.6 mph - N/A   Scattered Clouds
7:53 AM 55.9 °F 53.1 °F 90% 29.99 in 10.0 mi West 4.6 mph - N/A   Clear
8:53 AM 57.0 °F 54.0 °F 89% 30.02 in 10.0 mi West 5.8 mph - N/A   Clear
9:53 AM 60.1 °F 54.0 °F 80% 30.02 in 10.0 mi Calm Calm - N/A   Scattered Clouds
10:53 AM 60.1 °F 53.1 °F 78% 30.05 in 10.0 mi West 8.1 mph - N/A   Clear
11:53 AM 63.0 °F 54.0 °F 72% 30.04 in 10.0 mi West 8.1 mph 17.3 mph N/A   Scattered Clouds
12:53 PM 66.0 °F 53.1 °F 63% 30.04 in 10.0 mi WNW 15.0 mph 23.0 mph N/A   Clear
1:53 PM 64.9 °F 52.0 °F 63% 30.04 in 10.0 mi WNW 12.7 mph 19.6 mph N/A   Mostly Cloudy
2:53 PM 66.0 °F 52.0 °F 60% 30.02 in 10.0 mi West 13.8 mph - N/A   Partly Cloudy
3:53 PM 62.1 °F 51.1 °F 67% 30.03 in 10.0 mi WNW 10.4 mph - N/A   Partly Cloudy
4:53 PM 60.1 °F 48.9 °F 67% 30.04 in 10.0 mi NNW 6.9 mph - N/A   Clear
5:53 PM 60.1 °F 48.0 °F 64% 30.03 in 10.0 mi WNW 6.9 mph - N/A   Clear
6:53 PM 59.0 °F 48.0 °F 67% 30.04 in 10.0 mi NW 4.6 mph - N/A   Clear
7:53 PM 55.9 °F 50.0 °F 80% 30.05 in 10.0 mi WSW 3.5 mph - N/A   Clear
8:53 PM 55.9 °F 46.0 °F 69% 30.06 in 10.0 mi West 6.9 mph - N/A   Clear
9:53 PM 55.0 °F 46.9 °F 74% 30.07 in 10.0 mi WNW 4.6 mph - N/A   Clear
10:53 PM 55.0 °F 48.0 °F 77% 30.08 in 10.0 mi NNW 4.6 mph - N/A   Clear
11:53 PM 54.0 °F 48.0 °F 80% 30.08 in 10.0 mi North 4.6 mph - N/A   Clear